Theta_e
302 302 301 301 301 301 301 301 302 303 302 302 303 304 304 304 305 306 306 307 302 298 300 301 301 298 297 295 293 297 295 293 295 291 291 289 289 292 289 292 289 289 288 290 292 287 285 302 301 294 302 307 306 306
302 302 301 301 301 301 301 300 301 302 301 301 302 303 305 305 305 306 300 308 307 299 299 305 305 306 304 304 299 296 295 294 296 294 292 290 288 290 290 286 295 290 296 293 294 294 303 304 305 308 309 307 307 306
302 302 302 301 301 301 301 301 301 301 301 301 302 303 304 305 306 305 302 306 303 298 298 299 299 305 307 305 307 295 296 301 297 300 295 292 288 291 287 290 292 295 299 295 296 297 300 303 305 306 309 309 309 309
302 301 301 300 300 300 301 301 301 301 301 301 302 303 303 305 306 306 302 305 304 300 293 295 304 302 305 305 304 305 304 302 302 300 295 293 290 296 290 292 292 295 296 293 293 296 298 300 302 306 309 310 309 309
300 300 301 301 300 301 301 301 301 301 302 302 302 303 304 305 306 307 305 304 305 299 293 295 300 302 305 305 303 303 301 300 298 294 294 291 295 293 295 292 292 297 294 291 290 298 299 300 305 307 308 308 309 309
300 301 301 301 300 300 300 301 301 302 302 302 302 303 305 306 307 303 295 303 306 306 294 289 300 299 301 302 301 300 300 299 299 296 295 297 301 295 290 290 297 299 300 300 297 302 302 304 306 308 308 309 310 309
300 300 300 300 300 300 300 300 300 301 302 303 303 304 305 305 305 298 296 301 304 305 295 290 292 298 299 299 299 297 300 298 298 296 294 296 296 295 291 290 297 299 300 301 302 302 300 303 303 308 309 310 309 308
300 300 301 301 300 300 300 300 301 302 302 303 303 304 306 305 305 301 305 305 307 300 297 288 289 292 298 296 296 299 295 296 296 296 297 295 296 294 289 296 299 300 301 301 301 302 301 303 305 306 308 309 308 307
300 300 300 301 301 300 300 300 301 301 302 303 304 305 304 302 298 301 306 306 306 300 291 290 286 285 297 295 297 297 298 290 297 293 294 296 294 290 294 298 299 300 300 300 302 303 303 301 301 304 308 307 307 305
300 300 300 301 300 300 300 301 301 301 302 303 302 296 293 298 306 306 299 296 294 294 294 287 292 287 293 292 291 293 296 294 290 293 298 291 290 298 300 301 302 302 302 303 300 300 302 301 302 306 307 308 308 307
299 300 300 300 300 300 300 301 301 302 302 298 296 294 299 304 299 296 290 288 289 286 289 289 290 287 294 287 286 294 291 295 288 292 292 290 290 296 301 301 304 304 304 302 303 305 305 306 306 305 306 306 305 306
299 300 300 300 300 300 300 300 301 300 299 297 298 300 300 295 291 287 286 288 287 284 288 287 289 290 291 293 289 292 289 292 285 296 290 287 294 299 300 302 303 305 304 303 303 304 304 304 305 304 303 303 303 304
299 299 299 299 300 299 299 300 300 301 301 299 293 290 289 287 282 281 280 283 283 288 289 289 288 290 292 292 290 290 287 286 296 288 287 291 298 300 303 303 303 303 304 303 303 304 302 300 301 302 301 301 300 303
299 299 299 299 298 299 299 300 301 300 297 289 286 282 283 282 284 285 285 287 290 291 292 291 292 290 290 288 288 284 289 291 285 284 285 295 298 300 303 302 301 299 301 301 300 299 298 298 298 298 299 298 298 301
298 298 298 298 299 299 299 299 300 299 293 287 286 281 283 287 288 289 291 290 293 296 294 292 293 293 289 286 287 286 284 284 285 286 291 294 297 298 300 299 300 299 299 298 298 298 297 297 296 296 297 298 298 299
297 297 296 298 298 299 299 299 298 295 291 287 286 283 286 286 287 288 289 289 294 295 295 293 287 285 285 287 284 283 283 284 289 289 293 294 295 296 299 300 298 296 295 295 294 295 296 295 295 295 295 295 297 297
296 294 297 298 299 299 299 296 293 288 286 286 283 287 287 288 288 290 291 292 296 293 287 288 283 283 289 286 284 289 287 291 292 294 294 293 292 296 296 295 294 294 293 294 294 295 294 295 295 294 292 294 296 297
294 296 297 297 298 297 295 294 289 286 283 285 283 287 288 289 289 289 291 294 294 290 289 286 290 283 282 282 285 292 293 295 295 294 294 293 293 297 296 293 293 293 293 294 293 293 293 292 292 292 293 295 295 296
295 297 296 298 297 293 288 288 288 283 284 287 287 288 288 288 290 291 291 293 296 297 292 289 285 283 285 290 291 294 295 295 293 293 292 294 297 295 294 294 293 293 293 292 292 291 291 292 292 292 293 294 293 294
297 297 298 298 297 290 286 286 290 285 283 286 288 287 288 288 290 290 291 291 291 290 287 286 285 289 292 295 297 296 297 297 294 288 288 295 295 294 294 293 293 292 291 291 291 290 291 291 292 293 293 292 292 291
296 296 297 296 293 290 287 287 285 285 286 286 289 289 288 291 288 288 288 291 289 287 286 289 290 293 296 298 300 299 298 297 294 292 293 293 295 296 294 293 293 292 290 290 289 289 290 290 292 292 292 291 291 291
295 297 293 293 288 288 287 289 286 289 287 287 289 290 287 286 287 289 291 288 287 289 291 292 292 294 294 294 297 299 299 298 298 298 295 294 293 293 293 293 292 290 290 290 290 290 290 291 293 292 291 290 291 291
295 294 289 288 286 284 285 291 285 287 283 285 288 285 287 287 289 293 288 290 291 295 295 295 296 297 296 297 298 298 300 298 297 298 299 297 296 296 296 294 294 292 290 291 292 292 290 289 290 291 290 290 289 289
295 289 285 284 284 282 287 285 287 286 286 285 283 283 286 289 290 288 286 289 292 295 295 296 298 297 297 296 295 295 298 300 298 299 299 300 297 295 297 295 295 295 294 293 293 293 292 292 290 291 290 290 289 289
281 283 284 280 285 283 282 283 284 284 282 284 283 284 286 288 286 286 286 289 294 295 296 297 297 295 294 297 297 296 299 298 297 297 301 301 300 297 296 296 295 295 295 293 293 292 292 293 292 291 291 290 289 289
277 283 282 283 283 282 282 281 283 284 285 284 285 288 290 287 284 284 289 292 294 294 294 294 294 294 295 299 297 298 300 300 299 299 302 301 300 298 295 293 292 292 295 296 294 292 292 292 291 291 291 289 287 289
278 281 285 289 287 287 285 287 288 286 284 284 287 287 287 283 283 288 293 292 291 293 295 296 296 296 297 298 302 304 304 303 301 301 303 302 302 303 300 297 294 294 297 297 296 294 292 292 292 291 291 291 291 291
284 285 282 286 285 287 284 285 284 285 287 290 289 284 283 284 285 291 293 296 298 299 299 301 302 301 301 302 304 303 304 305 304 304 303 302 304 303 303 302 299 289 298 299 297 296 294 293 292 292 292 291 291 292
283 287 287 284 286 286 286 285 286 290 293 291 288 287 289 293 296 295 295 297 301 300 298 299 301 302 302 302 303 304 304 304 302 299 298 297 297 300 303 302 295 297 299 297 287 292 296 294 293 293 292 292 292 293
284 288 286 286 286 285 290 291 290 293 293 294 293 293 293 295 297 298 297 298 298 296 296 297 299 300 299 300 301 303 305 305 305 303 301 301 301 303 303 301 299 298 298 297 296 294 286 292 290 293 291 292 292 291
287 288 286 286 286 289 291 292 293 292 292 292 293 291 291 295 296 297 298 299 298 298 296 297 299 300 300 299 299 299 301 306 307 306 306 307 306 304 303 303 301 298 299 298 295 294 294 294 294 293 293 293 293 293
286 285 284 284 287 291 290 289 289 289 289 289 289 291 291 293 291 294 299 299 297 295 291 295 297 297 299 300 301 301 292 300 304 307 306 306 306 306 305 303 299 298 299 297 296 296 295 295 294 294 294 293 293 294
286 286 287 287 288 287 290 289 288 289 289 289 290 289 292 293 290 295 300 300 297 296 295 296 297 299 299 299 297 297 295 302 294 287 288 290 294 298 303 301 299 298 298 297 297 296 295 295 294 294 294 294 293 293
Wind_Speed
12 12 11 11 12 11 11 11 11 11 11 11 10 11 8 8 9 4 2 4 2 4 10 14 13 13 6 3 5 4 6 3 3 3 3 2 2 2 4 4 8 5 4 3 2 4 5 2 5 7 8 11 12 13
13 12 11 11 13 12 11 12 12 11 11 11 11 10 10 7 7 5 3 2 3 3 6 4 14 16 19 20 10 3 3 3 3 2 1 1 3 3 4 5 2 4 5 4 5 4 6 9 7 7 8 10 11 10
14 13 12 12 12 13 12 12 12 12 12 12 11 10 11 11 7 6 3 2 1 3 9 8 11 12 12 15 12 5 4 5 4 2 0 1 5 2 4 6 5 4 4 6 7 5 6 8 10 10 10 9 10 7
15 14 14 14 14 14 13 13 14 13 13 12 12 11 11 12 11 6 3 2 3 3 5 5 1 6 3 7 10 17 10 3 2 2 3 4 4 6 4 7 10 9 10 9 13 18 16 14 15 9 9 8 9 4
16 15 15 14 14 13 14 14 14 13 14 13 12 12 12 12 10 5 4 5 6 4 4 8 18 19 14 15 17 16 14 13 9 3 5 4 2 3 5 5 13 14 11 6 6 8 7 11 12 5 8 9 8 6
16 16 15 15 15 13 15 14 14 15 14 14 13 13 13 12 7 1 4 1 9 6 4 4 5 7 5 6 10 12 11 8 7 5 5 4 5 4 5 7 8 13 13 14 10 5 8 12 11 7 9 9 8 5
18 18 17 16 14 15 15 16 14 15 15 15 13 14 15 12 3 3 3 1 1 6 4 3 6 2 3 2 2 3 7 4 5 4 6 9 6 6 5 21 10 11 14 14 14 12 12 14 7 3 7 8 3 2
18 18 17 17 17 16 16 16 16 14 13 14 15 15 14 12 8 5 7 8 5 2 2 4 6 7 2 2 2 3 4 5 6 4 3 4 3 5 10 24 15 15 18 19 18 18 20 16 11 6 4 6 6 2
19 18 17 17 17 15 14 15 13 12 12 14 16 14 5 4 3 3 2 11 1 3 3 4 3 4 4 2 2 3 3 5 3 6 5 5 7 10 20 22 15 16 11 10 5 7 12 17 17 11 9 8 8 4
18 19 18 16 14 14 14 13 13 13 12 12 7 3 4 3 7 11 2 4 4 4 4 5 4 7 3 5 4 4 4 4 4 7 3 6 10 20 24 21 20 18 17 15 11 9 8 11 13 13 13 9 7 4
19 19 18 16 15 14 13 12 11 10 9 3 5 3 2 3 2 2 3 5 4 3 4 3 6 8 2 4 4 4 4 3 4 3 5 5 7 14 17 21 20 22 20 19 18 14 8 7 11 10 9 8 5 5
19 17 17 16 14 15 13 11 10 4 3 1 2 1 2 2 3 4 4 4 4 5 4 3 4 5 3 1 4 4 4 4 7 3 4 6 7 13 16 18 18 17 16 18 17 12 8 7 8 8 6 6 5 5
19 18 18 16 16 14 11 10 10 10 3 2 1 3 3 3 6 7 9 5 5 5 4 5 4 3 4 3 4 4 5 6 2 5 5 5 11 15 19 15 9 7 8 12 12 12 11 9 6 5 5 3 2 5
15 17 14 11 12 12 11 9 9 4 2 2 3 5 4 5 5 5 5 2 2 2 3 4 2 4 2 4 2 5 5 4 5 5 6 7 18 20 16 9 5 4 6 11 15 14 12 9 7 5 3 2 2 5
9 10 11 14 12 10 9 9 8 2 2 3 2 4 6 4 0 1 1 2 2 1 2 2 3 3 3 3 4 4 4 7 5 4 5 10 17 17 15 8 5 6 8 10 10 11 10 9 7 5 3 1 2 4
12 11 7 10 11 10 9 3 2 1 3 4 5 4 3 2 6 5 6 7 2 5 2 1 2 3 7 4 6 7 5 6 2 4 7 10 15 13 14 7 5 10 7 8 7 9 8 7 5 5 3 0 1 3
10 2 5 9 14 11 12 3 1 3 3 4 4 5 5 4 5 4 4 4 3 4 3 2 4 7 2 5 6 5 5 4 7 9 8 10 13 15 4 3 5 9 7 4 9 7 7 6 5 4 3 0 2 3
2 3 5 1 7 7 2 1 2 4 6 4 4 8 7 7 7 6 5 5 6 6 5 4 3 4 5 6 6 3 3 7 6 7 9 11 14 1 3 5 4 7 6 5 6 7 6 5 4 3 1 2 1 1
4 4 4 10 5 4 3 3 2 3 6 4 6 7 5 5 7 9 7 6 7 6 3 3 6 5 7 6 8 8 5 5 8 9 10 12 2 4 6 6 6 6 6 6 5 4 4 4 3 2 1 2 2 2
8 5 5 10 5 2 3 2 1 4 4 4 5 5 4 5 6 8 9 8 7 4 6 6 8 8 8 7 6 7 7 5 5 7 10 2 1 5 5 4 4 6 5 6 5 4 4 3 3 3 3 3 3 4
5 3 5 4 2 2 1 3 4 3 3 4 4 5 5 5 7 8 8 8 7 5 7 9 10 11 13 10 8 7 7 5 4 6 8 7 3 3 4 5 5 4 4 3 4 4 3 3 3 4 4 5 5 5
2 8 2 2 1 3 2 3 3 1 3 4 4 5 4 5 5 5 5 6 5 7 9 11 13 11 12 14 12 10 9 4 8 9 7 3 4 4 4 4 5 4 3 3 3 4 4 3 4 5 5 5 5 5
7 2 2 2 3 4 1 3 4 4 4 3 2 3 3 3 2 5 4 5 6 7 9 10 12 14 13 15 12 10 10 6 6 8 3 4 3 4 5 5 4 6 5 5 4 5 5 4 6 6 5 5 6 6
6 3 3 3 3 2 2 3 3 3 4 3 3 4 3 2 4 4 5 3 2 2 2 2 3 5 7 9 9 8 9 8 9 8 4 6 5 6 5 5 5 5 6 6 6 6 6 6 7 6 5 6 6 6
3 4 3 3 3 4 4 4 4 3 4 5 3 4 2 2 3 3 3 1 1 1 0 2 4 4 5 5 4 4 7 8 9 8 5 7 7 7 7 6 5 5 7 8 7 7 7 7 7 6 7 6 8 9
2 5 5 6 3 4 4 3 3 5 4 3 5 3 2 2 4 3 2 3 3 2 5 6 5 5 5 5 5 4 1 2 5 5 5 9 10 9 10 10 8 7 7 6 9 9 9 8 8 9 8 9 9 9
2 4 4 3 2 3 4 5 4 4 4 3 2 2 2 3 3 2 2 5 8 7 7 5 5 6 5 5 5 4 3 3 5 0 1 7 7 6 8 8 8 6 10 9 9 11 10 9 9 9 9 8 7 8
3 2 4 2 4 4 4 3 3 3 3 1 1 2 1 2 3 2 4 7 9 5 4 4 5 5 5 4 4 3 1 2 3 6 6 5 3 4 6 6 6 11 10 10 10 10 11 9 10 11 11 10 9 9
3 2 3 4 4 4 5 4 4 3 1 2 2 1 2 3 1 5 9 10 4 7 7 5 3 2 2 3 2 1 2 4 5 5 5 4 5 5 7 8 9 9 9 10 6 8 13 12 11 9 11 10 9 10
2 3 2 3 4 4 3 6 3 2 2 2 2 1 1 1 3 5 7 7 7 8 6 5 4 4 5 5 5 4 2 3 3 4 4 3 4 7 9 11 11 9 11 11 11 11 9 11 11 9 9 9 9 9
1 5 4 3 3 3 2 2 2 2 2 2 2 2 2 2 3 2 5 6 5 5 4 6 7 8 8 8 7 6 5 3 3 4 4 2 5 10 11 11 11 9 12 13 13 14 14 12 12 13 14 14 14 12
3 4 2 3 3 2 2 1 2 2 2 2 2 1 2 3 2 2 5 5 6 8 7 7 6 6 6 6 6 4 5 6 6 4 6 5 6 10 12 11 10 10 13 14 13 14 17 15 13 14 14 16 15 14
2 2 3 3 3 3 1 3 2 3 1 2 2 1 1 2 4 2 1 4 6 7 8 7 5 5 6 6 8 8 8 5 3 2 2 6 9 11 10 9 9 11 16 14 13 14 17 17 15 16 16 16 16 14
Wind_Direction
271 275 279 283 283 287 293 302 303 312 313 315 324 325 323 323 323 325 295 197 211 229 270 265 264 271 258 232 263 351 321 188 288 2 335 8 263 334 285 281 291 286 303 278 252 258 281 38 335 358 318 307 328 337
267 268 272 276 278 282 288 293 295 300 308 308 318 318 321 309 302 320 278 180 210 244 282 307 272 259 248 250 272 194 261 315 298 277 221 286 257 244 274 284 190 257 232 298 265 273 319 297 272 294 283 287 313 327
267 271 271 268 276 279 284 284 289 297 297 302 309 315 314 313 283 247 261 294 198 272 277 256 247 262 234 234 224 229 193 223 244 254 57 274 248 174 244 243 265 254 248 250 296 250 282 293 286 283 279 270 298 333
266 265 270 272 274 276 279 283 283 284 290 297 302 306 305 300 298 280 212 210 236 290 273 296 267 261 233 203 210 222 247 184 242 236 253 219 228 207 235 263 256 269 301 265 272 286 287 275 262 269 252 272 285 326
268 266 264 266 274 275 279 277 276 281 283 292 294 293 296 294 299 285 234 199 221 244 289 302 311 287 264 247 230 221 232 230 232 239 227 230 231 248 239 255 254 240 238 214 247 257 278 285 296 280 245 268 284 313
266 261 261 261 264 270 275 276 279 280 281 282 286 294 297 293 310 261 288 186 216 194 260 273 304 263 295 250 240 222 215 202 206 201 234 228 219 222 261 262 230 213 225 235 249 242 293 279 296 280 271 274 284 319
260 259 253 255 258 265 267 272 275 274 277 288 293 287 284 289 266 208 228 119 274 157 244 271 268 260 298 275 133 155 187 192 221 228 235 245 218 200 255 259 238 242 247 248 246 259 263 255 276 349 266 287 319 76
263 265 260 249 247 251 260 266 269 270 272 277 281 284 281 279 278 233 227 181 146 238 249 257 268 306 29 285 219 165 156 192 202 227 229 222 178 207 245 258 257 254 256 264 254 245 250 254 257 270 247 266 264 242
253 255 257 256 246 249 260 270 272 275 279 281 287 295 275 213 211 219 197 181 168 251 243 215 233 278 357 349 271 183 203 218 188 222 230 197 207 219 237 257 255 243 228 241 232 249 247 235 239 227 201 226 249 257
257 250 253 247 243 247 255 261 268 271 278 287 276 223 213 193 138 119 137 166 201 194 229 238 227 238 326 344 314 308 198 238 230 215 181 225 245 252 256 258 265 258 247 240 239 250 239 224 210 193 195 209 234 252
254 247 246 244 245 245 254 255 263 275 273 205 196 221 64 147 120 192 217 197 173 222 214 237 229 249 186 224 256 257 288 274 258 204 222 241 250 249 253 252 254 256 244 236 236 245 224 222 188 179 186 195 205 243
254 245 245 243 241 246 245 251 258 242 222 313 301 149 126 187 178 201 203 191 207 237 183 214 219 209 221 215 216 244 256 248 250 131 233 251 272 282 283 288 283 270 245 226 217 208 184 191 173 172 175 189 199 239
253 230 235 239 232 234 239 246 251 250 252 167 220 187 198 153 204 208 185 192 203 196 185 195 201 206 181 213 225 248 247 237 277 241 245 296 342 344 322 313 312 308 238 184 172 145 133 123 122 140 154 172 241 262
239 235 248 213 222 232 229 235 246 235 166 196 216 184 204 194 224 205 213 169 164 209 187 197 212 204 149 194 227 246 243 278 250 233 243 357 342 330 334 320 303 79 150 156 137 135 130 129 125 125 147 171 265 256
237 231 206 217 213 225 231 231 245 184 161 197 223 234 219 226 140 147 244 238 212 77 10 243 250 222 205 242 221 262 249 240 244 299 9 323 332 334 312 260 180 121 140 127 128 126 127 130 142 144 145 155 266 275
211 215 215 206 218 219 210 226 130 164 160 189 218 248 245 259 237 232 249 257 270 208 133 286 245 244 226 223 207 215 251 244 18 326 307 313 323 324 299 265 156 118 108 115 114 115 123 127 128 122 119 143 297 276
190 205 196 202 214 200 169 131 128 175 241 208 219 229 255 268 244 214 199 221 201 195 200 204 239 225 275 231 205 225 252 358 329 313 309 314 313 302 277 65 75 102 93 132 115 119 113 122 127 112 115 11 289 251
148 219 198 253 132 140 122 144 169 211 225 225 222 216 205 231 249 242 222 212 207 167 181 216 237 229 248 260 264 326 315 309 303 301 295 303 297 299 128 95 94 91 127 123 116 111 107 104 104 102 98 70 76 144
167 194 166 155 131 117 154 159 180 264 223 229 244 238 232 242 238 251 252 243 238 240 159 205 230 222 227 242 263 273 281 273 306 316 312 292 269 144 118 120 116 114 121 112 99 90 86 81 82 75 73 100 91 70
188 240 157 158 124 121 157 185 217 235 238 232 232 240 237 238 249 233 233 229 221 206 216 216 225 238 239 244 245 270 276 292 323 324 317 300 153 121 114 122 117 120 107 98 92 91 97 92 82 66 90 97 101 82
162 209 215 198 129 135 232 172 196 238 252 245 254 221 246 237 236 223 236 221 213 226 234 225 237 247 249 255 260 256 252 233 297 261 282 292 206 153 137 130 115 110 109 109 107 108 105 77 80 105 97 85 77 77
183 129 82 117 143 168 248 214 249 256 218 248 248 226 229 245 236 206 179 186 218 220 220 225 234 248 256 254 255 246 234 242 266 269 259 153 170 172 160 148 141 130 124 120 124 114 109 79 99 90 85 90 82 90
90 108 119 197 183 202 234 175 230 213 245 244 218 240 229 235 227 149 201 215 228 229 229 234 248 255 255 260 261 246 208 195 269 272 272 212 184 172 167 170 157 148 145 133 122 129 116 91 99 101 98 94 97 97
129 162 172 190 214 218 211 219 216 246 247 245 256 261 243 238 147 218 242 207 212 127 167 205 256 271 260 247 245 234 223 212 235 269 273 186 178 184 168 163 171 157 142 141 140 128 130 118 123 112 112 109 102 99
119 170 199 205 208 232 228 222 210 230 247 219 246 257 252 188 234 237 238 61 94 124 359 323 306 270 276 296 289 262 237 225 228 238 185 183 166 152 159 164 158 147 151 152 144 139 135 135 121 122 116 114 112 109
192 187 203 194 190 221 221 254 229 216 238 239 239 274 267 252 252 275 56 358 330 278 297 288 272 265 260 258 292 305 327 263 233 235 186 183 184 171 165 165 163 166 177 159 152 149 147 141 137 135 128 121 118 120
227 202 201 225 241 242 258 248 258 257 256 260 237 266 280 286 297 0 345 283 270 260 248 243 240 238 251 268 282 287 299 254 224 243 90 180 190 189 178 167 168 154 164 163 160 159 152 145 142 135 135 135 130 127
253 266 224 153 216 228 265 284 270 268 254 236 265 341 2 312 283 272 274 291 291 292 263 246 229 220 234 255 269 283 288 56 86 100 91 95 146 159 155 144 130 139 159 160 159 155 151 146 141 144 144 138 131 134
237 224 201 238 229 230 214 219 247 241 242 216 282 254 189 177 307 338 325 313 328 22 19 29 36 94 201 220 229 246 191 179 187 175 158 149 161 168 165 136 139 153 152 151 133 148 157 152 148 149 144 136 137 141
235 183 241 249 233 224 225 191 240 265 229 235 267 256 151 103 67 353 321 7 25 40 357 342 353 24 34 25 13 12 184 214 242 274 266 192 188 154 156 150 149 153 148 149 144 130 110 131 129 137 139 143 142 142
186 185 239 239 267 260 258 298 264 243 241 237 214 237 76 90 19 355 348 349 1 16 11 11 30 30 19 9 0 352 347 2 320 279 254 224 165 160 157 153 150 151 150 150 149 153 153 157 157 159 160 156 153 160
205 219 237 262 268 276 296 262 308 297 325 326 7 95 129 168 151 71 345 342 16 20 12 9 13 8 356 355 356 331 291 280 278 250 209 192 170 159 153 143 142 151 152 154 156 158 164 161 160 164 166 161 161 163
228 220 239 269 277 288 4 320 17 336 282 7 45 67 59 41 49 71 55 19 24 8 360 353 339 344 342 4 359 334 326 340 51 13 224 152 144 143 138 139 147 154 154 157 160 162 167 165 163 165 168 169 171 171